GBBEE LPSO-LEPA

Flight info

Callsign GBBEE
Flight time N/A
Altitude 40000
Route IDBID DCT BARDI M191 DIPOL M871 ABOSI/N0429F410 DCT GODOX
Aircraft LJ35/M-SGHRWXY/SB1

Departure

Time N/A
Airport Aeródromo Municipal de Ponte de Sor (LPSO)

Arrival

Time 2026-05-03 20:32
Airport Palma de Mallorca Airport (LEPA)
Time Latitude Longitude Altitude Speed Heading
2026-05-03 20:15 39.44822 1.99180 10004 ft 318 kts 82°
2026-05-03 20:15 39.45183 2.01998 10003 ft 317 kts 82°
2026-05-03 20:15 39.45802 2.04739 9993 ft 318 kts 71°
2026-05-03 20:15 39.46538 2.07440 9935 ft 320 kts 72°
2026-05-03 20:16 39.47269 2.10256 9421 ft 336 kts 72°
2026-05-03 20:16 39.48021 2.13155 8926 ft 347 kts 72°
2026-05-03 20:16 39.48811 2.16144 8445 ft 354 kts 71°
2026-05-03 20:16 39.49614 2.19185 8034 ft 358 kts 72°
2026-05-03 20:17 39.50365 2.22043 7996 ft 304 kts 72°
2026-05-03 20:17 39.51015 2.24522 7995 ft 282 kts 72°
2026-05-03 20:17 39.51634 2.26899 7993 ft 276 kts 72°
2026-05-03 20:17 39.52246 2.29240 7992 ft 274 kts 72°
2026-05-03 20:18 39.52860 2.31588 7997 ft 276 kts 72°
2026-05-03 20:18 39.53477 2.33952 7997 ft 278 kts 72°
2026-05-03 20:18 39.54096 2.36324 7990 ft 278 kts 72°
2026-05-03 20:18 39.54718 2.38694 7993 ft 278 kts 71°
2026-05-03 20:19 39.55631 2.40896 7997 ft 278 kts 54°
2026-05-03 20:19 39.56745 2.42946 8001 ft 278 kts 54°
2026-05-03 20:19 39.57840 2.45026 7998 ft 277 kts 55°
2026-05-03 20:19 39.58819 2.47164 7990 ft 277 kts 66°
2026-05-03 20:20 39.59529 2.49486 7992 ft 277 kts 70°
2026-05-03 20:20 39.60192 2.51842 7996 ft 279 kts 71°
2026-05-03 20:20 39.60847 2.54195 7992 ft 278 kts 71°
2026-05-03 20:20 39.61506 2.56552 7994 ft 277 kts 71°
2026-05-03 20:21 39.62166 2.58904 8008 ft 277 kts 70°
2026-05-03 20:21 39.62826 2.61275 7865 ft 283 kts 71°
2026-05-03 20:21 39.63491 2.63674 7683 ft 279 kts 71°
2026-05-03 20:21 39.64137 2.66007 7500 ft 272 kts 71°
2026-05-03 20:22 39.64770 2.68304 7258 ft 269 kts 71°
2026-05-03 20:22 39.65392 2.70550 6698 ft 249 kts 71°
2026-05-03 20:22 39.65956 2.72580 6119 ft 235 kts 71°
2026-05-03 20:22 39.66505 2.74545 5526 ft 227 kts 71°
2026-05-03 20:23 39.67038 2.76437 5007 ft 218 kts 71°
2026-05-03 20:23 39.67535 2.78193 4976 ft 200 kts 71°
2026-05-03 20:23 39.68043 2.79973 4984 ft 216 kts 71°
2026-05-03 20:23 39.68578 2.81858 4992 ft 228 kts 71°
2026-05-03 20:24 39.69131 2.83825 5005 ft 236 kts 71°
2026-05-03 20:24 39.69696 2.85839 5007 ft 243 kts 71°
2026-05-03 20:24 39.70285 2.87950 5007 ft 248 kts 71°
2026-05-03 20:24 39.70869 2.90045 5011 ft 252 kts 70°
2026-05-03 20:25 39.71477 2.92230 4908 ft 259 kts 71°
2026-05-03 20:25 39.72104 2.94481 4648 ft 269 kts 71°
2026-05-03 20:25 39.72340 2.96847 4378 ft 272 kts 98°
2026-05-03 20:25 39.71687 2.99096 4300 ft 264 kts 128°
2026-05-03 20:26 39.70314 3.00608 4297 ft 253 kts 157°
2026-05-03 20:26 39.68635 3.01073 4295 ft 244 kts 179°
2026-05-03 20:26 39.67022 3.00772 4292 ft 235 kts 204°
2026-05-03 20:26 39.65775 2.99497 4294 ft 214 kts 230°
2026-05-03 20:27 39.64961 2.98003 4280 ft 195 kts 236°
2026-05-03 20:27 39.64321 2.96548 4252 ft 171 kts 242°
2026-05-03 20:27 39.63826 2.95220 4227 ft 163 kts 243°
2026-05-03 20:27 39.63332 2.93883 4203 ft 166 kts 243°
2026-05-03 20:28 39.62832 2.92539 4185 ft 166 kts 243°
2026-05-03 20:28 39.62336 2.91170 4072 ft 169 kts 244°
2026-05-03 20:28 39.61805 2.89793 3841 ft 173 kts 240°
2026-05-03 20:28 39.61236 2.88400 3593 ft 175 kts 240°
2026-05-03 20:29 39.60665 2.87015 3369 ft 172 kts 239°
2026-05-03 20:29 39.60069 2.85654 3085 ft 174 kts 239°
2026-05-03 20:29 39.59465 2.84298 2869 ft 172 kts 238°
2026-05-03 20:29 39.58864 2.82977 2580 ft 169 kts 236°
2026-05-03 20:30 39.58245 2.81683 2223 ft 167 kts 234°
2026-05-03 20:30 39.57610 2.80451 1713 ft 166 kts 236°
2026-05-03 20:30 39.57002 2.79175 1189 ft 163 kts 233°
2026-05-03 20:30 39.56411 2.78001 729 ft 152 kts 235°
2026-05-03 20:31 39.55850 2.76840 316 ft 154 kts 240°
2026-05-03 20:31 39.55299 2.75659 41 ft 146 kts 239°
2026-05-03 20:31 39.54875 2.74755 20 ft 64 kts 239°
2026-05-03 20:31 39.54668 2.74318 26 ft 58 kts 237°
2026-05-03 20:32 39.54513 2.73986 25 ft 38 kts 239°
2026-05-03 20:32 39.54428 2.73796 27 ft 12 kts 252°
2026-05-03 20:32 39.54492 2.73718 28 ft 11 kts 330°
2026-05-03 20:32 39.54521 2.73696 28 ft 0 kts 330°
2026-05-03 20:33 39.54546 2.73678 26 ft 2 kts 331°
2026-05-03 20:33 39.54558 2.73669 26 ft 0 kts 328°
2026-05-03 20:34 39.54564 2.73652 27 ft 7 kts 260°
2026-05-03 20:35 39.54529 2.73575 27 ft 14 kts 236°
2026-05-03 20:35 39.54477 2.73468 27 ft 18 kts 238°
2026-05-03 20:35 39.54371 2.73244 29 ft 25 kts 238°
2026-05-03 20:35 39.54277 2.73044 30 ft 23 kts 237°
2026-05-03 20:36 39.54239 2.72968 31 ft 17 kts 237°
2026-05-03 20:36 39.54225 2.72858 30 ft 15 kts 320°
2026-05-03 20:36 39.54274 2.72793 30 ft 11 kts 244°
2026-05-03 20:36 39.54238 2.72717 30 ft 10 kts 239°
2026-05-03 20:37 39.54204 2.72646 29 ft 7 kts 237°
2026-05-03 20:37 39.54174 2.72568 29 ft 11 kts 261°
2026-05-03 20:37 39.54173 2.72526 29 ft 1 kts 302°
2026-05-03 20:37 39.54180 2.72513 28 ft 1 kts 288°
2026-05-03 20:38 39.54182 2.72493 28 ft 1 kts 274°
2026-05-03 20:38 39.54183 2.72483 28 ft 2 kts 266°
2026-05-03 20:38 39.54175 2.72463 28 ft 0 kts 233°
2026-05-03 20:39 39.54155 2.72442 28 ft 4 kts 213°
2026-05-03 20:40 39.54150 2.72438 28 ft 2 kts 215°
2026-05-03 20:40 39.54135 2.72415 28 ft 5 kts 234°
2026-05-03 20:40 39.54135 2.72371 27 ft 4 kts 333°
2026-05-03 20:40 39.54157 2.72360 27 ft 0 kts 326°